Location: Centerville
(32.8776°N, 96.6203°W)
Time: 13:23:20
(UTC+00:00)

CZ-4 R/B - Pass Details

Date: 17 June 2021
Orbit: 532 x 596 km, 97.8° (Epoch: 30 July)

Event Time Altitude Azimuth Distance (km) Brightness Sun altitude
Rises 02:12:59 0° 206° (SSW) 2,659 4.7 -7.3°
Reaches altitude 10° 02:15:52 10° 230° (SW) 1,775 4.1 -7.8°
Maximum altitude 02:18:04 15° 266° (W) 1,502 4.3 -8.2°
Drops below altitude 10° 02:20:17 10° 301° (WNW) 1,789 5.6 -8.6°
Sets 02:23:13 0° 325° (NW) 2,692 6.4 -9.1°
